Location: Caltech
(34.1382°N, 118.1253°W)
Time: 11:31:28
(UTC-07:00)

SO-50 - Visible Passes

Search period start: 19 August 2017 00:00
Search period end: 29 August 2017 00:00
Orbit: 622 x 666 km, 64.6° (Epoch: 19 August)

Date Brightness Start Highest point End Pass type
(mag) Time Alt. Az. Time Alt. Az. Time Alt. Az.
26 Aug ? 23:06:47 12° NNW 23:06:47 12° NNW 23:07:42 10° NNW visible
27 Aug ? 05:55:24 10° N 05:58:54 21° NE 06:02:25 10° ESE visible
27 Aug ? 20:07:27 10° SE 20:09:51 14° ESE 20:12:16 10° ENE visible
27 Aug ? 21:45:32 10° SW 21:49:52 47° WNW 21:54:14 10° NNE visible
28 Aug ? 20:30:38 10° S 20:34:50 39° ESE 20:39:02 10° NE visible
28 Aug ? 22:12:09 10° W 22:15:24 19° NW 22:18:41 10° N visible
